| time (UTC) | temp C | wind direction | speed KPH | gust KPH | rain 1hr cm | rain 24hr cm | rain mn cm | humidity % | barometer mb |
| 20260504034715 | 3 | 28 | 1.6 | 3.2 | 0.00 | 0.00 | 0.00 | 77 | 1006.4 |
| 20260504032715 | 2 | 355 | 3.2 | 6.4 | 0.00 | 0.00 | 0.00 | 79 | 1006.7 |
| 20260504030715 | 1 | 357 | 3.2 | 6.4 | 0.00 | 0.00 | 0.00 | 85 | 1006.9 |
| 20260504024714 | 1 | 307 | 4.8 | 6.4 | 0.00 | 0.00 | 0.00 | 83 | 1007.1 |
| 20260504022715 | 1 | 320 | 3.2 | 4.8 | 0.00 | 0.00 | 0.00 | 83 | 1007.3 |
| 20260504020714 | 1 | 320 | 3.2 | 3.2 | 0.00 | 0.00 | 0.00 | 80 | 1007.3 |
| 20260504014715 | 2 | 321 | 3.2 | 3.2 | 0.00 | 0.00 | 0.00 | 76 | 1007.5 |
| 20260504012714 | 2 | 282 | 6.4 | 6.4 | 0.00 | 0.00 | 0.00 | 76 | 1007.7 |
| 20260504010715 | 3 | 330 | 1.6 | 4.8 | 0.00 | 0.00 | 0.00 | 72 | 1007.7 |
| 20260504004714 | 3 | 353 | 1.6 | 3.2 | 0.00 | 0.00 | 0.00 | 69 | 1007.8 |
| 20260504002715 | 3 | 14 | 3.2 | 4.8 | 0.00 | 0.00 | 0.00 | 68 | 1007.9 |
| 20260504000714 | 3 | 341 | 1.6 | 3.2 | 0.00 | 0.00 | 0.00 | 66 | 1008.1 |
| 20260503234714 | 4 | 355 | 3.2 | 4.8 | 0.00 | 0.00 | 0.00 | 67 | 1008.1 |
| 20260503232714 | 4 | 309 | 4.8 | 6.4 | 0.00 | 0.00 | 0.00 | 67 | 1008.3 |
| 20260503230714 | 4 | 328 | 4.8 | 6.4 | 0.00 | 0.00 | 0.00 | 67 | 1008.3 |
| 20260503224714 | 4 | 310 | 3.2 | 4.8 | 0.00 | 0.00 | 0.00 | 65 | 1008.5 |
| 20260503222714 | 4 | 340 | 3.2 | 6.4 | 0.00 | 0.00 | 0.00 | 64 | 1008.6 |
| 20260503220714 | 4 | 29 | 4.8 | 8.0 | 0.00 | 0.00 | 0.00 | 64 | 1008.5 |
| 20260503214713 | 5 | 9 | 4.8 | 9.7 | 0.00 | 0.00 | 0.00 | 63 | 1008.9 |
| 20260503212713 | 5 | 13 | 4.8 | 8.0 | 0.00 | 0.00 | 0.00 | 63 | 1008.9 |
| 20260503210714 | 5 | 352 | 4.8 | 9.7 | 0.00 | 0.00 | 0.00 | 62 | 1008.9 |
| 20260503204714 | 5 | 339 | 11.3 | 16.1 | 0.00 | 0.00 | 0.00 | 61 | 1009.0 |
| 20260503202713 | 6 | 329 | 9.7 | 14.5 | 0.00 | 0.00 | 0.00 | 59 | 1009.0 |
| 20260503200713 | 6 | 327 | 6.4 | 12.9 | 0.00 | 0.00 | 0.00 | 57 | 1009.0 |
| 20260503194713 | 6 | 325 | 9.7 | 14.5 | 0.00 | 0.00 | 0.00 | 53 | 1008.8 |
| 20260503192712 | 7 | 323 | 8.0 | 11.3 | 0.00 | 0.00 | 0.00 | 50 | 1008.8 |
| 20260503190713 | 8 | 324 | 6.4 | 9.7 | 0.00 | 0.00 | 0.00 | 48 | 1008.8 |
| 20260503184713 | 8 | 323 | 9.7 | 16.1 | 0.00 | 0.00 | 0.00 | 47 | 1008.7 |
| 20260503182712 | 8 | 316 | 9.7 | 14.5 | 0.00 | 0.00 | 0.00 | 47 | 1008.7 |
| 20260503180713 | 9 | 317 | 9.7 | 16.1 | 0.00 | 0.00 | 0.00 | 46 | 1008.6 |
| 20260503174713 | 9 | 317 | 12.9 | 24.1 | 0.00 | 0.00 | 0.00 | 45 | 1008.5 |
| 20260503172719 | 10 | 328 | 11.3 | 20.9 | 0.00 | 0.00 | 0.00 | 46 | 1008.4 |
| 20260503170712 | 11 | 302 | 14.5 | 20.9 | 0.00 | 0.00 | 0.00 | 46 | 1008.4 |
| 20260503150712 | 13 | 328 | 9.7 | 16.1 | 0.00 | 0.00 | 0.00 | 42 | 1008.6 |
| 20260503130711 | 12 | 308 | 14.5 | 20.9 | 0.00 | 0.00 | 0.00 | 50 | 1009.0 |
| 20260503110711 | 13 | 312 | 14.5 | 24.1 | 0.00 | 0.00 | 0.00 | 56 | 1009.0 |
| 20260503080711 | 9 | 351 | 11.3 | 19.3 | 0.00 | 0.00 | 0.00 | 80 | 1008.9 |
| 20260503072710 | 8 | 321 | 9.7 | 16.1 | 0.00 | 0.00 | 0.00 | 87 | 1008.6 |
| 20260503070710 | 8 | 337 | 11.3 | 19.3 | 0.00 | 0.00 | 0.00 | 88 | 1008.3 |
| 20260503054710 | 7 | 323 | 8.0 | 14.5 | 0.00 | 0.00 | 0.00 | 95 | 1007.6 |
| 20260503052710 | 7 | 321 | 1.6 | 3.2 | 0.00 | 0.00 | 0.00 | 93 | 1007.2 |
| 20260503050710 | 6 | 312 | 3.2 | 4.8 | 0.00 | 0.00 | 0.00 | 94 | 1007.1 |
| 20260503044710 | 6 | 355 | 6.4 | 9.7 | 0.00 | 0.00 | 0.00 | 92 | 1007.0 |
| 20260503042710 | 7 | 342 | 8.0 | 14.5 | 0.00 | 0.00 | 0.00 | 89 | 1006.9 |
| 20260503040710 | 7 | 342 | 8.0 | 14.5 | 0.00 | 0.00 | 0.00 | 82 | 1006.9 |